Flag for Germany Weather past 2 weeks in Mannheim, Baden-Württemberg, Germany

Now
73 °F

Passing clouds.


Feels Like: 77 °F
Forecast: 53 / 65 °F
Wind: 7 mph from West

Location: Baden Wurttemberg - Neuostheim

Current Time: Aug 30, 2014 at 2:42:14 PM

Latest Report: Aug 30, 2014 at 1:50 PM


Visibility: N/A

Pressure: 30.09 "Hg

Humidity: 44%

Dew point: 50 °F

Location of MannheimLocation

Historic Weather in Mannheim — Graph

°F

Mannheim temperature yesterday

Maximum temperature yesterday: 77 °F (at 3:50 PM)
Minimum temperature yesterday: 63 °F (at 6:50 AM)
Average temperature yesterday: 70 °F

Past Weeks' High & Low Weather Summary

 TemperatureHumidityPressure
High77 °F (Aug 29, 3:50 PM)100% (Aug 19, 5:50 AM)30.15 "Hg (Aug 19, 5:50 AM)
Low48 °F (Aug 20, 5:50 AM)33% (Aug 21, 4:20 PM)29.65 "Hg (Aug 26, 5:50 AM)
Average63 °F67%29.98 "Hg
* Reported Aug 15 1:20 PM — Aug 30 1:50 PM, Mannheim, Weather by CustomWeather, © 2014

Note: Actual official high and low records may vary slightly from our data, if they occured in-between our weather recording intervals... More about our weather records

Advertising

Mannheim weather history for previous 24 hours

 ConditionsComfort  
Time TempWeatherWind HumidityBarometerVisibility
1:50 PM
Aug 30
73 °FPassing clouds.7 mph44%30.09 "HgN/A
1:20 PM72 °FPassing clouds.6 mph50%30.09 "HgN/A
12:50 PM70 °FPartly sunny.7 mph53%30.09 "HgN/A
12:20 PM70 °FBroken clouds.7 mph53%30.09 "HgN/A
11:50 AM68 °FPassing clouds.7 mph56%30.12 "HgN/A
11:20 AM70 °FPassing clouds.7 mph60%30.12 "HgN/A
10:50 AM68 °FPassing clouds.6 mph64%30.12 "HgN/A
10:20 AM66 °FPassing clouds.6 mph68%30.09 "HgN/A
9:50 AM66 °FPassing clouds.5 mph68%30.09 "HgN/A
9:20 AM64 °FSunny.3 mph73%30.09 "Hg10 mi
8:50 AM63 °FSunny.3 mph83%30.09 "Hg10 mi
8:20 AM63 °FPassing clouds.2 mph88%30.09 "HgN/A
7:50 AM61 °FPassing clouds.3 mph94%30.09 "HgN/A
7:20 AM59 °FClear.5 mph94%30.09 "Hg10 mi
8:50 PM
Aug 29
72 °FSunny.3 mph61%30.01 "Hg10 mi
8:20 PM73 °FMild.3 mph53%30.01 "HgN/A
7:50 PM73 °FSunny.5 mph53%30.01 "Hg10 mi
7:20 PM75 °FPassing clouds.5 mph50%30.01 "HgN/A
6:50 PM75 °FPassing clouds.5 mph50%29.98 "HgN/A
6:20 PM75 °FPassing clouds.5 mph47%30.01 "HgN/A
5:50 PM77 °FPassing clouds.7 mph44%30.01 "HgN/A
5:20 PM77 °FPassing clouds.7 mph44%30.01 "HgN/A
4:50 PM75 °FScattered clouds.3 mph47%30.01 "HgN/A
4:20 PM75 °FScattered clouds.5 mph47%30.01 "HgN/A
3:50 PM77 °FScattered clouds.5 mph47%30.01 "HgN/A
3:20 PM75 °FBroken clouds.3 mph50%30.01 "HgN/A
2:50 PM75 °FScattered clouds.6 mph50%30.04 "HgN/A
2:20 PM75 °FPassing clouds.5 mph54%30.04 "HgN/A
Weather by CustomWeather, © 2014

See weather overviewHow to use our weather pages